Погода в Летичеве

Украина / Хмельницкая область     49°23′30″N   27°37′23″E
темп.,
°C
ветер,
м/с
пор.,
м/с
влажн.,
%
обл.,
%
осадки,
мм/ч
давл.,
гПа
погр.,
м
26 июля, пн
пн2600:00+20вюв37658 0.0 1019148
03:00+18юв356710 0.0 1019102
06:00+16юв36725 0.0 101984
09:00+21юв586476 0.0 1019323
12:00+24ююв585794 0.0 1019807
15:00+27ю674377 0.0 10182043
18:00+26ююв465296 0.0 10171032
21:00+21юв477445 0.0 1018114
27 июля, вт
вт2700:00+19юв49685 0.0 1018142
03:00+18юв4106866 0.0 1018158
06:00+17ююв411690 0.0 1018191
09:00+22ююв41071100 0.8 1017343
12:00+25ююв696251 2.7 1017574
15:00+29ю67497 2.7 10161094
18:00+26ю4661100 0.0 1015156
21:00+23ююз4117372 0.0 1015228
28 июля, ср
ср2800:00+19ююз368722 1.1 101681
03:00+19юз37881 1.3 1015122
06:00+18зюз36925 0.0 1015112
09:00+22ссз468274 0.2 1015373
12:00+26зсз446021 0.0 10151164
15:00+28сз34505 0.0 10151656
18:00+28ссз34495 0.0 10141657
21:00+23ссз11700 0.0 101411
29 июля, чт
чт2900:00+21юв22775 0.0 101415
03:00+19юв228268 0.0 101320
06:00+20ююв337828 0.3 101359
09:00+21ююв248626 0.8 1013152
12:00+28зюз335648 0.0 1012972
15:00+30з44455 0.0 10121836
18:00+28з56574 0.0 10111389
21:00+23сз597487 0.0 1013326
30 июля, пт
пт3000:00+19зсз3793100 0.0 1013142
03:00+18зсз359593 0.0 1013100
06:00+17сз35960 0.0 101397
09:00+22сз23750 0.0 1013448
12:00+26з23530 0.0 10121175
15:00+29зюз23420 0.0 10111465
18:00+29юз23430 0.0 10101457
21:00+23ююв33630 0.0 100942